Location: Leuk
(46.3174°N, 7.6341°E)
Time: 18:23:41
(UTC+00:00)

FENGYUN 3A - Pass Details

Date: 09 March 2021
Orbit: 823 x 836 km, 98.4° (Epoch: 16 April)

Event Time Altitude Azimuth Distance (km) Brightness Sun altitude
Rises 03:26:55 0° 17° (NNE) 3,398 7.4 -25.7°
Reaches altitude 10° 03:29:22 10° 23° (NNE) 2,459 6.7 -25.3°
Maximum altitude 03:34:42 53° 100° (E) 1,020 4.3 -24.5°
Drops below altitude 10° 03:39:58 10° 177° (S) 2,437 5.9 -23.6°
Enters shadow 03:40:06 - 177° (S) 2,489 6.0 -23.6°
